Eelde, Netherlands

11:46 PM CET on March 25, 2017 (GMT +0100)
Eelde

Weather History for EHGG - January, 2013

Change the Weather History Date:

Thursday, January 24, 2013

  Actual Average Record
Temperature  
Mean Temperature 20 °F -  
Max Temperature 30 °F 40 °F 51 °F (2001)
Min Temperature 9 °F 29 °F 9 °F (2013)
Degree Days  
Heating Degree Days 46    
Moisture  
Dew Point 21 °F    
Average Humidity 85    
Maximum Humidity 93    
Minimum Humidity 63    
Precipitation  
Precipitation 0.00 in 0.06 in - ()
Sea Level Pressure  
Sea Level Pressure 30.02 in    
Wind  
Wind Speed 4 mph ()    
Max Wind Speed 7 mph    
Max Gust Speed -    
Visibility 6.3 miles    
Events Fog    
Averages and records for this station are not official NWS values.
T = Trace of Precipitation, MM = Missing Value Source: Averaged Metar Reports

Daily Weather History Graph

Daily Weather History Graph

Search for Another Location

Airport or City:

Trip Planner

Search our weather history database for the weather conditions in past years. The results will help you decide how hot, cold, wet, or windy it might be!

Date:

Astronomy

Jan. 24, 2013 Rise Set
Actual Time 8:29 AM CET 5:02 PM CET
Civil Twilight 7:50 AM CET 5:41 PM CET
Nautical Twilight 7:07 AM CET 6:24 PM CET
Astronomical Twilight 6:26 AM CET 7:05 PM CET
Moon 2:44 PM CET (1/24) 6:21 AM CET (1/24)
Length of Visible Light 9h 51m
Length of Day
8h 33m
Waxing Gibbous, 93% of the Moon is Illuminated
Jan 24
Waxing Gibbous
Jan 27
Full
Feb 3
Last Quarter
Feb 10
New
Feb 17
First Quarter

Hourly Weather History & Observations

Time (CET) Temp. Windchill Dew Point Humidity Pressure Visibility Wind Dir Wind Speed Gust Speed Precip Events Conditions
12:25 AM 15.8 °F 8.6 °F 14.0 °F 93% 29.92 in 1.7 mi NE 4.6 mph - N/A   Overcast
12:55 AM 19.4 °F 14.3 °F 17.6 °F 93% 29.92 in 3.7 mi NE 3.5 mph - N/A   Overcast
1:00 AM 21 °F - 19 °F 91% 29.93 in 4 mi NNE 2.2 mph - - Fog Fog
1:25 AM 23.0 °F 18.4 °F 21.2 °F 93% 29.92 in 6.2 mi NNE 3.5 mph - N/A   Overcast
1:55 AM 24.8 °F 19.1 °F 23.0 °F 93% 29.92 in 6.2 mi NNE 4.6 mph - N/A   Overcast
2:25 AM 24.8 °F 19.1 °F 23.0 °F 93% 29.92 in 6.2 mi NNE 4.6 mph - N/A   Overcast
2:55 AM 24.8 °F 20.5 °F 23.0 °F 93% 29.92 in 6.2 mi NNE 3.5 mph - N/A   Overcast
3:25 AM 24.8 °F 19.1 °F 23.0 °F 93% 29.92 in 6.2 mi NNE 4.6 mph - N/A   Overcast
3:55 AM 26.6 °F 20.0 °F 23.0 °F 86% 29.92 in 6.2 mi NNE 5.8 mph - N/A   Overcast
4:00 AM 26 °F - 24 °F 86% 29.94 in 9 mi NNE 4.5 mph - -   Overcast
4:25 AM 26.6 °F 20.0 °F 23.0 °F 86% 29.92 in 6.2 mi NNE 5.8 mph - N/A   Overcast
4:55 AM 26.6 °F 21.2 °F 23.0 °F 86% 29.92 in 6.2 mi North 4.6 mph - N/A   Overcast
5:25 AM 26.6 °F 21.2 °F 23.0 °F 86% 29.95 in 6.2 mi North 4.6 mph - N/A   Overcast
5:55 AM 26.6 °F 21.2 °F 23.0 °F 86% 29.95 in 6.2 mi North 4.6 mph - N/A   Overcast
6:25 AM 26.6 °F 20.0 °F 23.0 °F 86% 29.95 in 6.2 mi North 5.8 mph - N/A   Overcast
6:55 AM 26.6 °F 21.2 °F 23.0 °F 86% 29.95 in 6.2 mi North 4.6 mph - N/A   Overcast
7:00 AM 27 °F - 22 °F 76% 29.97 in 25 mi North 4.5 mph - -   Partly Cloudy
7:25 AM 26.6 °F 20.0 °F 23.0 °F 86% 29.95 in 6.2 mi North 5.8 mph - N/A   Overcast
7:55 AM 28.4 °F 23.3 °F 23.0 °F 80% 29.98 in 6.2 mi NNE 4.6 mph - N/A   Overcast
8:25 AM 26.6 °F 22.6 °F 23.0 °F 86% 29.98 in 6.2 mi NNE 3.5 mph - N/A   Overcast
8:55 AM 26.6 °F 22.6 °F 23.0 °F 86% 29.98 in 6.2 mi NE 3.5 mph - N/A   Overcast
9:25 AM 26.6 °F 21.2 °F 23.0 °F 86% 29.98 in 6.2 mi ENE 4.6 mph - N/A   Overcast
9:55 AM 26.6 °F 21.2 °F 23.0 °F 86% 30.01 in 6.2 mi ENE 4.6 mph - N/A   Overcast
10:00 AM 27 °F - 24 °F 81% 30.02 in 11 mi NE 4.5 mph - -   Overcast
10:25 AM 28.4 °F 23.3 °F 23.0 °F 80% 30.01 in 6.2 mi East 4.6 mph - N/A   Overcast
10:55 AM 28.4 °F 22.2 °F 23.0 °F 80% 30.01 in 6.2 mi East 5.8 mph - N/A   Overcast
11:25 AM 28.4 °F 21.2 °F 23.0 °F 80% 30.01 in 6.2 mi East 6.9 mph - N/A   Overcast
11:55 AM 28.4 °F 22.2 °F 23.0 °F 80% 30.04 in 6.2 mi NE 5.8 mph - N/A   Overcast
12:25 PM 28.4 °F 23.3 °F 23.0 °F 80% 30.04 in 6.2 mi ENE 4.6 mph - N/A   Overcast
12:55 PM 30.2 °F 25.4 °F 23.0 °F 75% 30.04 in 6.2 mi NE 4.6 mph - N/A   Overcast
1:00 PM 30 °F - 22 °F 63% 30.05 in 17 mi NE 4.5 mph - -   Partly Cloudy
1:25 PM 28.4 °F 23.3 °F 21.2 °F 74% 30.04 in 6.2 mi ENE 4.6 mph - N/A   Overcast
1:55 PM 30.2 °F 26.7 °F 21.2 °F 69% 30.04 in 6.2 mi East 3.5 mph - N/A   Overcast
2:25 PM 30.2 °F 24.3 °F 21.2 °F 69% 30.04 in 6.2 mi NE 5.8 mph - N/A   Overcast
2:55 PM 30.2 °F 24.3 °F 21.2 °F 69% 30.04 in 6.2 mi ENE 5.8 mph - N/A   Overcast
3:25 PM 28.4 °F 22.2 °F 21.2 °F 74% 30.04 in 6.2 mi NE 5.8 mph - N/A   Overcast
3:55 PM 26.6 °F 22.6 °F 21.2 °F 80% 30.06 in 6.2 mi ENE 3.5 mph - N/A   Mostly Cloudy
4:00 PM 27 °F - 21 °F 71% 30.07 in 22 mi NE 4.5 mph - -   Overcast
4:25 PM 26.6 °F 21.2 °F 21.2 °F 80% 30.06 in 6.2 mi ENE 4.6 mph - N/A   Scattered Clouds
4:55 PM 24.8 °F - 21.2 °F 86% 30.06 in 6.2 mi Variable 1.2 mph - N/A   Mostly Cloudy
5:25 PM 23.0 °F - 19.4 °F 86% 30.09 in 6.2 mi Variable 1.2 mph - N/A   Overcast
5:55 PM 21.2 °F - 17.6 °F 86% 30.09 in 6.2 mi ENE 2.3 mph - N/A   Overcast
6:25 PM 21.2 °F - 19.4 °F 93% 30.09 in 6.2 mi Variable 1.2 mph - N/A   Overcast
6:55 PM 21.2 °F - 19.4 °F 93% 30.09 in 6.2 mi Variable 1.2 mph - N/A   Partly Cloudy
7:00 PM 20 °F - 18 °F 91% 30.11 in 9 mi East 2.2 mph - -   Partly Cloudy
7:25 PM 17.6 °F - 15.8 °F 93% 30.09 in 5.0 mi Variable 1.2 mph - N/A   Unknown
7:55 PM 17.6 °F - 15.8 °F 93% 30.12 in 2.2 mi Variable 1.2 mph - N/A   Mostly Cloudy
8:25 PM 17.6 °F - 15.8 °F 93% 30.12 in 5.6 mi WNW 2.3 mph - N/A   Overcast
8:55 PM 17.6 °F - 15.8 °F 93% 30.12 in 5.6 mi NW 2.3 mph - N/A   Overcast
9:25 PM 19.4 °F - 17.6 °F 93% 30.12 in 5.6 mi NNW 2.3 mph - N/A   Overcast
9:55 PM 19.4 °F - 17.6 °F 93% 30.12 in 6.2 mi NNW 1.2 mph - N/A   Overcast
10:00 PM 20 °F - 18 °F 89% 30.15 in 6 mi North 2.2 mph - -   Partly Cloudy
10:25 PM 21.2 °F - 19.4 °F 93% 30.12 in 6.2 mi Variable 1.2 mph - N/A   Overcast
10:55 PM 21.2 °F - 19.4 °F 93% 30.15 in 6.2 mi WSW 2.3 mph - N/A   Overcast
11:25 PM 21.2 °F - 19.4 °F 93% 30.12 in 5.0 mi South 1.2 mph - N/A   Overcast
11:55 PM 23.0 °F - 21.2 °F 93% 30.15 in 5.6 mi Calm Calm - N/A   Overcast